Regional Weather Roundup
Issued by NWS

Home | Current Version | Previous Version | Text Only | Print | Product List | Glossary On
Versions: 1 2 3 4 5 6 7 8 9 10 11 12 13 14 15 16 17 18 19 20 21 22 23 24 25 26 27 28 29 30 31 32 33 34 35 36 37 38 39 40 41 42 43 44 45 46 47 48 49 50
169
ASUS45 KABQ 041510
RWRNM
NEW MEXICO REGIONAL WEATHER ROUNDUP
NATIONAL WEATHER SERVICE ALBUQUERQUE NM
800 AM MST SUN DEC 04 2016

NOTE: "FAIR" MEANS FEW OR NO CLOUDS BELOW 12,000 FEET AGL WITH NO
       SIGNIFICANT WEATHER OR OBSTRUCTIONS TO VISION.

      THIS PRODUCT IS RELEASED AS TWO VERSIONS.  ONE VERSION NEAR
      THE TOP OF THE HOUR CONTAINING PRELIMINARY DATA FROM ALBUQUERQUE
      AND OTHER STATIONS.  A FINAL VERSION WITH ADDITIONAL DATA IS
      ISSUED ABOUT 10 MINUTES AFTER THE HOUR.

NMZ501-503-504-510>518-041600-
NORTHWEST PLATEAU/NORTHCENTRAL MOUNTAINS

CITY           SKY/WX    TMP DP  RH WIND       PRES   REMARKS
FARMINGTON     FAIR      20  15  81 CALM      30.21R
LOS ALAMOS     FAIR      24  10  54 CALM      30.15S
SANTA FE       FAIR      24  13  62 N20       30.12S WCI  10
TAOS           FAIR      12   3  67 CALM      30.17S
ANGEL FIRE     FAIR       5   1  86 CALM      30.14S

$$
NMZ402-403-502-505>509-041600-
WESTCENTRAL MOUNTAINS/SOUTHWEST MOUNTAINS

CITY           SKY/WX    TMP DP  RH WIND       PRES   REMARKS
GALLUP         FAIR      14  11  87 CALM      30.19R
GRANTS         FAIR      18  13  79 CALM      30.20S
SILVER CITY    FAIR      31  26  80 CALM      30.11R

$$
NMZ407-409-411-412-041600-
SOUTHERN DESERTS

CITY           SKY/WX    TMP DP  RH WIND       PRES   REMARKS
DEMING         FAIR      39  27  62 CALM      30.11R
LAS CRUCES     FAIR      38  18  43 N16G24    30.10R WCI  29
HOLLOMAN AFB   FAIR      33  25  73 NW6       30.13R WCI  27
T OR C         FAIR      34  20  56 CALM      30.13R

$$
NMZ519>523-041600-
CENTRAL VALLEYS/CENTRAL HIGHLANDS

CITY           SKY/WX    TMP DP  RH WIND       PRES   REMARKS
ALBUQUERQUE    FAIR      30  12  47 N6        30.17R WCI  24
DOUBLE EAGLE   CLEAR     28  12  50 NW9       30.16R WCI  20
MORIARTY ARPT  FAIR      23  16  75 N6        30.16R WCI  16
CLINES CORNERS FAIR      21  15  78 NW9       30.12R WCI  11
BELEN          FAIR      29  14  52 N10       30.18R WCI  20
SOCORRO        FAIR      28  18  66 N7        30.19R WCI  21

$$
NMZ524>526-539-540-041600-
SOUTHCENTRAL MOUNTAINS

CITY           SKY/WX    TMP DP  RH WIND       PRES   REMARKS
RUIDOSO        FAIR      28  19  69 NW6       30.14R WCI  22

$$
NMZ527>531-041600-
NORTHEAST HIGHLANDS/NORTHEAST PLAINS

CITY           SKY/WX    TMP DP  RH WIND       PRES   REMARKS
LAS VEGAS      FAIR      24  15  68 S6        30.10R WCI  17
RATON          FAIR      14   8  77 NE7       30.08R WCI   4
CLAYTON        FAIR      31  23  72 W6        30.10S WCI  25

$$
NMZ532>537-041600-
EASTCENTRAL PLAINS

CITY           SKY/WX    TMP DP  RH WIND       PRES   REMARKS
TUCUMCARI      FAIR      29  26  89 NW5       30.13R WCI  24
CANNON AFB     PTSUNNY   28  28 100 NE12      30.12R WCI  18
CLOVIS AIRPORT CLOUDY    30  27  86 N13       30.12R WCI  20

$$
NMZ028-029-538-041600-
SOUTHEAST PLAINS

CITY           SKY/WX    TMP DP  RH WIND       PRES   REMARKS
ROSWELL        FAIR      36  30  79 NW13      30.13R WCI  27
ARTESIA        FAIR      36  36 100 N6        30.16R WCI  31
CARLSBAD       CLOUDY    34  34 100 N16       30.13R WCI  24
HOBBS          CLOUDY    37  37 100 N8        30.11R WCI  31


$$




USA.gov is the U.S. government's official web portal to all federal, state and local government web resources and services.